C7607 Weather Reports


time (UTC)temp
C
wind
direction
speed
KPH
gust
KPH
rain 1hr
cm
rain 24hr
cm
rain mn
cm
humidity
%
barometer
mb
20260505151545 22 99 3.2 14.5 0.00 0.00 0.00 57 1018.1
20260505124540 17 186 4.8 17.7 0.00 0.00 0.00 71 1018.2
20260505123045 16 210 4.8 16.1 0.00 0.00 0.00 73 1018.1
20260505121544 16 169 4.8 12.9 0.00 0.00 0.00 74 1018.2
20260505120041 15 205 3.2 12.9 0.00 0.00 0.00 75 1018.1
20260505114545 15 101 3.2 11.3 0.00 0.00 0.00 76 1018.0
20260505113041 14 214 0.0 8.0 0.00 0.00 0.00 80 1017.9
20260505111553 13 175 0.0 1.6 0.00 0.00 0.00 82 1017.7
20260505101545 13 0 0.0 3.2 0.00 0.00 0.00 78 1017.1
20260505100042 13 0 0.0 8.0 0.00 0.00 0.00 77 1017.0
20260505094537 13 0 0.0 6.4 0.00 0.00 0.00 77 1016.8
20260505093037 13 215 0.0 3.2 0.00 0.00 0.00 76 1016.7
20260505091554 14 224 0.0 4.8 0.00 0.00 0.00 75 1016.6
20260505090051 14 190 0.0 4.8 0.00 0.00 0.00 73 1016.6
20260505084538 15 0 1.6 8.0 0.00 0.00 0.00 72 1016.5
20260505083043 15 0 1.6 9.7 0.00 0.00 0.00 72 1016.4
20260505081557 15 0 1.6 9.7 0.00 0.00 0.00 72 1016.4
20260505080046 15 213 3.2 9.7 0.00 0.00 0.00 72 1016.4
20260505074602 15 174 0.0 9.7 0.00 0.00 0.00 72 1016.4
20260505073038 15 153 0.0 6.4 0.00 0.00 0.00 71 1016.3
20260505071544 16 204 4.8 9.7 0.00 0.00 0.00 71 1016.2
20260505070045 16 0 3.2 12.9 0.00 0.00 0.00 70 1016.1
20260505064541 16 169 0.0 9.7 0.00 0.00 0.00 70 1016.1
20260505063044 16 233 3.2 11.3 0.00 0.00 0.00 70 1016.2
20260505061606 16 232 3.2 11.3 0.00 0.00 0.00 70 1016.1
20260505060042 16 0 1.6 11.3 0.00 0.00 0.00 69 1016.2
20260505054545 16 180 3.2 9.7 0.00 0.00 0.00 69 1016.1
20260505053045 16 213 1.6 12.9 0.00 0.00 0.00 69 1016.2
20260505051543 17 0 1.6 9.7 0.00 0.00 0.00 68 1016.3
20260505041542 17 171 1.6 8.0 0.00 0.00 0.00 66 1016.2
20260505040045 18 207 1.6 11.3 0.00 0.00 0.00 65 1016.2
20260505034544 18 217 1.6 11.3 0.00 0.00 0.00 64 1016.2
20260505033050 18 223 3.2 11.3 0.00 0.00 0.00 63 1016.2
20260505031536 18 217 3.2 17.7 0.00 0.00 0.00 62 1016.2
20260505030043 19 211 3.2 14.5 0.00 0.00 0.00 61 1016.1
20260505024604 20 128 3.2 17.7 0.00 0.00 0.00 59 1016.1
20260505023050 20 172 4.8 16.1 0.00 0.00 0.00 54 1016.0
20260505021601 20 195 1.6 14.5 0.00 0.00 0.00 48 1015.9
20260505020047 21 178 3.2 12.9 0.00 0.00 0.00 46 1015.7
20260505014545 21 188 3.2 12.9 0.00 0.00 0.00 45 1015.6
20260505013049 21 294 3.2 11.3 0.00 0.00 0.00 45 1015.3
20260505011549 21 204 1.6 8.0 0.00 0.00 0.00 44 1015.2
20260505010048 22 198 3.2 6.4 0.00 0.00 0.00 43 1015.0
20260505004606 22 0 0.0 14.5 0.00 0.00 0.00 41 1014.6
20260505003043 23 236 1.6 12.9 0.00 0.00 0.00 38 1014.5
20260505001542 25 157 1.6 12.9 0.00 0.00 0.00 36 1014.4
20260505000044 25 311 1.6 9.7 0.00 0.00 0.00 34 1014.4
20260504234538 26 231 1.6 6.4 0.00 0.00 0.00 31 1014.1
20260504233055 26 200 3.2 11.3 0.00 0.00 0.00 30 1014.1
20260504231541 27 190 3.2 14.5 0.00 0.00 0.00 30 1014.1
20260504230043 26 181 3.2 16.1 0.00 0.00 0.00 32 1014.2
20260504224541 26 236 4.8 16.1 0.00 0.00 0.00 31 1014.2
20260504223053 26 257 8.0 19.3 0.00 0.00 0.00 31 1014.2
20260504221548 26 199 9.7 27.4 0.00 0.00 0.00 32 1014.2
20260504220103 27 182 6.4 16.1 0.00 0.00 0.00 32 1014.1
20260504214543 26 215 8.0 19.3 0.00 0.00 0.00 32 1014.2
20260504213103 27 208 4.8 16.1 0.00 0.00 0.00 32 1014.1
20260504211538 27 271 6.4 12.9 0.00 0.00 0.00 31 1014.2
20260504210037 27 83 3.2 14.5 0.00 0.00 0.00 33 1014.4
20260504204558 27 243 4.8 16.1 0.00 0.00 0.00 33 1014.4
20260504203043 26 242 6.4 17.7 0.00 0.00 0.00 33 1014.5
20260504201542 26 264 8.0 20.9 0.00 0.00 0.00 32 1014.6
20260504200044 27 175 8.0 14.5 0.00 0.00 0.00 32 1014.8
20260504194546 27 65 1.6 11.3 0.00 0.00 0.00 33 1014.8
20260504193042 26 227 6.4 17.7 0.00 0.00 0.00 34 1015.2
20260504191543 25 202 6.4 16.1 0.00 0.00 0.00 35 1015.4
20260504190043 25 266 8.0 16.1 0.00 0.00 0.00 36 1015.4
20260504184555 24 242 4.8 17.7 0.00 0.00 0.00 35 1015.7
20260504183037 24 236 8.0 14.5 0.00 0.00 0.00 38 1015.8
20260504181545 25 190 4.8 20.9 0.00 0.00 0.00 38 1015.9
20260504180044 24 220 3.2 19.3 0.00 0.00 0.00 37 1016.0
20260504174545 24 196 3.2 19.3 0.00 0.00 0.00 39 1016.2
20260504173036 23 281 3.2 11.3 0.00 0.00 0.00 40 1016.3
20260504171545 23 294 6.4 17.7 0.00 0.00 0.00 41 1016.6